Historique des stations

Station météo de Véretz

Altitude de la station : 70 m







Données météorologiques pour le 06/10/2022
Date
Heure
Températures Humidité Point de rosée Vitesse
du vent
Direction Rafales Windchill Pression Pluviométrie
Cumul
Date
Heure
Températures Humidité Point de rosée Vitesse
du vent
Direction Rafales Windchill Pression Pluviométrie
Cumul
06/10/2022 23:486.7 °C90 %5.0 °C---6.7 1028 hPa-
06/10/2022 23:456.8 °C90 %5.0 °C-NE8 km/h6.7 1028 hPa-
06/10/2022 23:336.9 °C90 %5.6 °C---7.2 1029 hPa-
06/10/2022 23:306.9 °C90 %5.6 °C-NE8 km/h7.2 1029 hPa-
06/10/2022 23:186.9 °C90 %5.6 °C---6.7 1029 hPa-
06/10/2022 23:156.9 °C90 %5.6 °C-NE8 km/h7.2 1029 hPa-
06/10/2022 23:076.8 °C90 %5.6 °C---6.7 1029 hPa-
06/10/2022 23:006.9 °C89 %5.0 °C-NE8 km/h6.7 1029 hPa-
06/10/2022 22:517.3 °C90 %5.6 °C---7.2 1029 hPa-
06/10/2022 22:457.4 °C89 %5.6 °C-NE8 km/h7.2 1029 hPa-
06/10/2022 22:337.8 °C89 %6.1 °C---7.8 1029 hPa-
06/10/2022 22:307.9 °C89 %6.1 °C-NE8 km/h7.8 1029 hPa-
06/10/2022 22:188.0 °C89 %6.1 °C---7.8 1029 hPa-
06/10/2022 22:158.0 °C89 %6.1 °C-NE8 km/h7.8 1029 hPa-
06/10/2022 22:038.1 °C88 %6.1 °C---8.3 1029 hPa-
06/10/2022 22:007.9 °C88 %6.1 °C-NE8 km/h7.8 1029 hPa-
06/10/2022 21:488.2 °C87 %6.1 °C---8.3 1029 hPa-
06/10/2022 21:458.2 °C87 %6.1 °C-NE8 km/h8.3 1029 hPa-
06/10/2022 21:338.5 °C87 %6.7 °C---8.3 1029 hPa-
06/10/2022 21:308.6 °C86 %6.1 °C-NE8 km/h8.3 1029 hPa-
06/10/2022 21:188.6 °C85 %6.1 °C---8.3 1029 hPa-
06/10/2022 21:158.7 °C85 %6.1 °C-NE8 km/h8.9 1029 hPa-
06/10/2022 21:039.3 °C84 %6.7 °C---9.4 1029 hPa-
06/10/2022 21:009.4 °C84 %6.7 °C-NE8 km/h9.4 1029 hPa-
06/10/2022 20:489.6 °C83 %6.7 °C---9.4 1029 hPa-
06/10/2022 20:469.6 °C82 %6.7 °C-NE8 km/h9.4 1029 hPa-
06/10/2022 20:3310.4 °C81 %7.2 °C---10.6 1029 hPa-
06/10/2022 20:3010.5 °C80 %7.2 °C-NE8 km/h10.6 1029 hPa-
06/10/2022 20:1811.3 °C79 %7.8 °C---11.1 1029 hPa-
06/10/2022 20:1511.2 °C79 %7.8 °C-NE8 km/h11.1 1029 hPa-
06/10/2022 20:0311.4 °C78 %7.8 °C---11.7 1029 hPa-
06/10/2022 20:0011.6 °C77 %7.8 °C-NE8 km/h11.7 1029 hPa-
06/10/2022 19:4812.8 °C74 %8.3 °C---12.8 1029 hPa-
06/10/2022 19:4512.9 °C74 %8.3 °C-NE8 km/h12.8 1029 hPa-
06/10/2022 19:3313.4 °C73 %8.9 °C---13.3 1029 hPa-
06/10/2022 19:3013.6 °C73 %8.9 °C-NE8 km/h13.3 1029 hPa-
06/10/2022 19:1814.1 °C72 %8.9 °C---13.9 1029 hPa-
06/10/2022 19:1614.2 °C71 %8.9 °C-NE8 km/h14.4 1029 hPa-
06/10/2022 19:0315.0 °C66 %8.9 °C---15.0 1029 hPa-
06/10/2022 19:0115.2 °C66 %8.9 °C-NE8 km/h15.0 1029 hPa-
06/10/2022 18:4815.9 °C62 %8.9 °C---16.1 1029 hPa-
06/10/2022 18:4516.1 °C62 %8.9 °C-NE8 km/h16.1 1029 hPa-
06/10/2022 18:3216.8 °C59 %8.9 °C---16.7 1029 hPa-
06/10/2022 18:3016.9 °C59 %8.9 °C-NE8 km/h17.2 1029 hPa-
06/10/2022 18:1817.1 °C59 %8.9 °C---17.2 1029 hPa-
06/10/2022 18:1617.2 °C57 %8.3 °C-NE8 km/h17.2 1029 hPa-
06/10/2022 18:0317.6 °C56 %8.9 °C---17.8 1029 hPa-
06/10/2022 18:0117.6 °C55 %8.3 °C-NE8 km/h17.8 1029 hPa-
06/10/2022 17:4817.7 °C55 %8.3 °C---17.8 1029 hPa-
06/10/2022 17:4517.8 °C56 %8.9 °C-NE8 km/h17.8 1029 hPa-
06/10/2022 17:3317.8 °C57 %8.9 °C---17.8 1029 hPa-
06/10/2022 17:3017.8 °C56 %8.9 °C-NE8 km/h17.8 1029 hPa-
06/10/2022 17:1818.2 °C55 %8.9 °C---18.3 1029 hPa-
06/10/2022 17:1618.1 °C56 %8.9 °C-ENE8 km/h18.3 1029 hPa-
06/10/2022 17:0318.2 °C55 %8.9 °C---18.3 1029 hPa-
06/10/2022 17:0018.2 °C53 %8.3 °C-ENE8 km/h18.3 1029 hPa-
06/10/2022 16:4818.3 °C53 %8.3 °C---18.3 1029 hPa-
06/10/2022 16:4518.2 °C55 %8.9 °C-ENE8 km/h18.3 1029 hPa-
06/10/2022 16:3318.0 °C55 %8.9 °C-NE2 km/h17.8 1029 hPa-
06/10/2022 16:3017.9 °C56 %8.9 °C-NE8 km/h17.8 1029 hPa-
06/10/2022 16:1818.0 °C55 %8.9 °C---17.8 1030 hPa-
06/10/2022 16:1618.1 °C57 %9.4 °C-ENE8 km/h18.3 1030 hPa-
06/10/2022 16:0318.0 °C54 %8.3 °C-N5 km/h17.8 1030 hPa-
06/10/2022 16:0018.2 °C56 %9.4 °C-ENE8 km/h18.3 1030 hPa-
06/10/2022 15:4817.9 °C56 %8.9 °C---17.8 1030 hPa-
06/10/2022 15:4518.1 °C54 %8.9 °C-ENE8 km/h18.3 1030 hPa-
06/10/2022 15:3318.2 °C54 %8.9 °C-NE3 km/h18.3 1030 hPa-
06/10/2022 15:3018.2 °C55 %8.9 °C-ENE8 km/h18.3 1030 hPa-
06/10/2022 15:1818.3 °C55 %8.9 °C---18.3 1030 hPa-
06/10/2022 15:1518.6 °C54 %8.9 °C-NE8 km/h18.9 1030 hPa-
06/10/2022 15:0318.7 °C53 %8.9 °C---18.9 1030 hPa-
06/10/2022 15:0018.9 °C55 %9.4 °C-ENE8 km/h18.9 1030 hPa-
06/10/2022 14:4818.9 °C57 %10.0 °C-NE5 km/h18.9 1030 hPa-
06/10/2022 14:4518.7 °C57 %10.0 °C-NE8 km/h18.9 1031 hPa-
06/10/2022 14:3318.8 °C59 %10.6 °C---18.9 1031 hPa-
06/10/2022 14:3018.5 °C59 %10.6 °C-SE8 km/h18.3 1031 hPa-
06/10/2022 14:1818.5 °C58 %10.0 °C---18.3 1031 hPa-
06/10/2022 14:1618.4 °C61 %10.6 °C-ENE8 km/h18.3 1031 hPa-
06/10/2022 14:0218.4 °C60 %10.6 °C-NE2 km/h18.3 1031 hPa-
06/10/2022 14:0018.3 °C59 %10.0 °C-NE8 km/h18.3 1031 hPa-
06/10/2022 13:4817.9 °C62 %10.6 °C---17.8 1031 hPa-
06/10/2022 13:4617.9 °C62 %10.6 °C-ENE8 km/h17.8 1032 hPa-
06/10/2022 13:3317.8 °C62 %10.6 °C---17.8 1032 hPa-
06/10/2022 13:3117.8 °C62 %10.6 °C-NE8 km/h17.8 1032 hPa-
06/10/2022 13:1717.8 °C66 %11.7 °C-N3 km/h17.8 1032 hPa-
06/10/2022 13:1517.4 °C65 %10.6 °C-NE8 km/h17.2 1032 hPa-
06/10/2022 13:0217.3 °C64 %10.6 °C---17.2 1032 hPa-
06/10/2022 13:0017.4 °C67 %11.1 °C-NNE8 km/h17.2 1032 hPa-
06/10/2022 12:4816.9 °C65 %10.0 °C-ENE2 km/h16.7 1032 hPa-
06/10/2022 12:4516.9 °C67 %10.6 °C-NE8 km/h17.2 1032 hPa-
06/10/2022 12:3316.4 °C66 %10.0 °C-NE8 km/h16.7 1032 hPa-
06/10/2022 12:3016.2 °C68 %10.6 °C-ENE8 km/h16.1 1032 hPa-
06/10/2022 12:1816.3 °C70 %11.1 °C-NE2 km/h16.1 1032 hPa-
06/10/2022 12:1516.2 °C71 %11.1 °C-NE2 km/h16.1 1032 hPa-
06/10/2022 12:0315.7 °C73 %11.1 °C---15.6 1032 hPa-
06/10/2022 12:0115.6 °C74 %11.1 °C-N2 km/h15.6 1032 hPa-
06/10/2022 11:4815.3 °C76 %11.1 °C---15.6 1032 hPa-
06/10/2022 11:4515.2 °C79 %11.7 °C-NE2 km/h15.0 1032 hPa-
06/10/2022 11:3213.9 °C85 %11.7 °C---13.9 1032 hPa-
06/10/2022 11:3013.7 °C86 %11.1 °C-NE2 km/h13.9 1032 hPa-
06/10/2022 11:1812.8 °C92 %11.7 °C---12.8 1032 hPa-
06/10/2022 11:1512.5 °C92 %11.1 °C-NNE2 km/h12.8 1032 hPa-
06/10/2022 11:0311.9 °C93 %11.1 °C---12.2 1032 hPa-
06/10/2022 11:0011.9 °C93 %11.1 °C-N2 km/h12.2 1032 hPa-
06/10/2022 10:4811.4 °C93 %10.6 °C---11.7 1032 hPa-
06/10/2022 10:4611.3 °C93 %10.0 °C-NNO2 km/h11.1 1032 hPa-
06/10/2022 10:3310.8 °C93 %10.0 °C---11.1 1032 hPa-
06/10/2022 10:3110.6 °C93 %9.4 °C-NNO2 km/h10.6 1032 hPa-
06/10/2022 10:1810.2 °C93 %8.9 °C---10.0 1032 hPa-
06/10/2022 10:1510.2 °C93 %8.9 °C-NNO2 km/h10.0 1032 hPa-
06/10/2022 10:029.9 °C93 %8.9 °C---10.0 1032 hPa-
06/10/2022 10:009.7 °C93 %8.9 °C-NNO2 km/h10.0 1032 hPa-
06/10/2022 09:489.3 °C93 %8.3 °C---9.4 1032 hPa-
06/10/2022 09:459.2 °C93 %8.3 °C-NNO2 km/h9.4 1032 hPa-
06/10/2022 09:338.8 °C93 %7.8 °C---8.9 1032 hPa-
06/10/2022 09:318.7 °C93 %7.8 °C-NNO2 km/h8.9 1032 hPa-
06/10/2022 09:188.2 °C93 %7.2 °C---8.3 1031 hPa-
06/10/2022 09:168.1 °C92 %6.7 °C-NNO2 km/h8.3 1031 hPa-
06/10/2022 09:037.3 °C92 %6.1 °C---7.2 1031 hPa-
06/10/2022 09:007.2 °C92 %6.1 °C-NNO2 km/h7.2 1031 hPa-
06/10/2022 08:486.8 °C92 %5.6 °C---6.7 1031 hPa-
06/10/2022 08:456.8 °C92 %5.6 °C-NNO2 km/h6.7 1031 hPa-
06/10/2022 08:336.6 °C92 %5.6 °C---6.7 1031 hPa-
06/10/2022 08:306.6 °C92 %5.6 °C-NNO2 km/h6.7 1031 hPa-
06/10/2022 08:186.6 °C92 %5.6 °C---6.7 1030 hPa-
06/10/2022 08:156.6 °C92 %5.6 °C-NNO2 km/h6.7 1030 hPa-
06/10/2022 08:036.6 °C92 %5.6 °C---6.7 1030 hPa-
06/10/2022 08:006.6 °C92 %5.6 °C-NNO2 km/h6.7 1030 hPa-
06/10/2022 07:486.8 °C92 %5.6 °C---6.7 1030 hPa-
06/10/2022 07:456.9 °C92 %5.6 °C-NNO2 km/h6.7 1030 hPa-
06/10/2022 07:336.9 °C92 %5.6 °C---7.2 1030 hPa-
06/10/2022 07:316.9 °C92 %5.6 °C-NNO2 km/h7.2 1030 hPa-
06/10/2022 07:187.1 °C91 %5.6 °C---7.2 1030 hPa-
06/10/2022 07:157.2 °C91 %5.6 °C-NNO2 km/h7.2 1030 hPa-
06/10/2022 07:037.3 °C91 %6.1 °C---7.2 1030 hPa-
06/10/2022 07:007.4 °C91 %6.1 °C-NNO2 km/h7.2 1030 hPa-
06/10/2022 06:488.2 °C91 %6.7 °C---8.3 1030 hPa-
06/10/2022 06:458.2 °C91 %6.7 °C-NNO2 km/h8.3 1030 hPa-
06/10/2022 06:338.1 °C91 %6.7 °C---8.3 1030 hPa-
06/10/2022 06:308.1 °C91 %6.7 °C-NNO2 km/h8.3 1030 hPa-
06/10/2022 06:188.5 °C91 %7.2 °C---8.3 1030 hPa-
06/10/2022 06:158.6 °C91 %7.2 °C-NNO2 km/h8.3 1030 hPa-
06/10/2022 06:038.9 °C91 %7.8 °C---8.9 1030 hPa-
06/10/2022 06:008.9 °C91 %7.8 °C-NNO2 km/h8.9 1030 hPa-
06/10/2022 05:489.1 °C91 %7.8 °C---8.9 1030 hPa-
06/10/2022 05:459.1 °C91 %7.8 °C-NNO2 km/h8.9 1030 hPa-
06/10/2022 05:339.2 °C91 %7.8 °C---9.4 1029 hPa-
06/10/2022 05:309.3 °C90 %7.8 °C-NNO2 km/h9.4 1029 hPa-
06/10/2022 05:1810.0 °C91 %8.3 °C---10.0 1029 hPa-
06/10/2022 05:1510.0 °C91 %8.3 °C-NNO2 km/h10.0 1029 hPa-
06/10/2022 05:03-89 %-----1029 hPa-
06/10/2022 05:00-89 %--NNO2 km/h-1029 hPa-
06/10/2022 04:48-89 %-----1029 hPa-
06/10/2022 04:46-89 %--NNO2 km/h-1029 hPa-
06/10/2022 04:33-89 %-----1029 hPa-
06/10/2022 04:30-89 %--NNO2 km/h-1029 hPa-
06/10/2022 04:19-89 %-----1029 hPa-
06/10/2022 04:15-89 %--NNO2 km/h-1029 hPa-
06/10/2022 04:03-89 %-----1029 hPa-
06/10/2022 04:00-89 %--NNO2 km/h-1029 hPa-
06/10/2022 03:4811.8 °C88 %10.0 °C---11.7 1029 hPa-
06/10/2022 03:4511.8 °C88 %10.0 °C-NNO2 km/h11.7 1029 hPa-
06/10/2022 03:3312.2 °C89 %10.6 °C---12.2 1029 hPa-
06/10/2022 03:3012.2 °C89 %10.6 °C-NNO2 km/h12.2 1029 hPa-
06/10/2022 03:1712.9 °C88 %11.1 °C---12.8 1029 hPa-
06/10/2022 03:1512.9 °C88 %11.1 °C-NNO2 km/h12.8 1029 hPa-
06/10/2022 03:03-88 %-----1029 hPa-
06/10/2022 03:00-88 %--NNO2 km/h-1028 hPa-
06/10/2022 02:48-88 %-----1028 hPa-
06/10/2022 02:4613.6 °C87 %11.7 °C-NNO2 km/h13.3 1028 hPa-
06/10/2022 02:3313.6 °C87 %11.7 °C---13.9 1028 hPa-
06/10/2022 02:3113.7 °C87 %11.7 °C-NNO2 km/h13.9 1028 hPa-
06/10/2022 02:1813.8 °C87 %11.7 °C---13.9 1028 hPa-
06/10/2022 02:1513.8 °C87 %11.7 °C-NNO2 km/h13.9 1028 hPa-
06/10/2022 02:0313.8 °C87 %11.7 °C---13.9 1028 hPa-
06/10/2022 02:0013.9 °C87 %11.7 °C-N2 km/h13.9 1028 hPa-
06/10/2022 01:4814.0 °C87 %11.7 °C---13.9 1028 hPa-
06/10/2022 01:4514.0 °C87 %11.7 °C-NNO2 km/h13.9 1028 hPa-
06/10/2022 01:3314.1 °C87 %12.2 °C---13.9 1028 hPa-
06/10/2022 01:3014.1 °C87 %12.2 °C-NNO2 km/h13.9 1028 hPa-
06/10/2022 01:1814.1 °C87 %11.7 °C---13.9 1028 hPa-
06/10/2022 01:1614.1 °C87 %11.7 °C-ONO2 km/h13.9 1028 hPa-
06/10/2022 01:0314.0 °C87 %11.7 °C---13.9 1027 hPa-
06/10/2022 01:0114.1 °C87 %11.7 °C-NNO2 km/h13.9 1027 hPa-
06/10/2022 00:4814.0 °C87 %11.7 °C---13.9 1027 hPa-
06/10/2022 00:4514.0 °C87 %11.7 °C-NNO2 km/h13.9 1027 hPa-
06/10/2022 00:3314.0 °C87 %11.7 °C---13.9 1027 hPa-
06/10/2022 00:3014.0 °C87 %11.7 °C-NNO2 km/h13.9 1027 hPa-
06/10/2022 00:1813.9 °C87 %11.7 °C---13.9 1027 hPa-
06/10/2022 00:1513.9 °C87 %11.7 °C-NNO2 km/h13.9 1027 hPa-
06/10/2022 00:0313.9 °C88 %11.7 °C-NNE2 km/h13.9 1027 hPa-
06/10/2022 00:0013.9 °C88 %11.7 °C-NNE29 km/h13.9 1027 hPa0.2 mm


Minima :

Température : 6.6 °C
Humidité : 53 %
Point de rosée : 5.0 °C
Vent moyen : - km/h
Windchill : 6.7
Pression atm. : 1027 hPa
Maxima :

Température : 18.9 °C
Humidité : 93 %
Point de rosée : 12.2 °C
Vent moyen : 0 km/h
Windchill : 18.9
Pression atm. : 1032 hPa
Rafales max : 29 km/h
Cumul de pluie sur 24H : 0.2 mm

Véretz est une commune du département Indre-et-Loire (37).
La station météorologique du réseau de l'association la plus proche de Véretz est celle de Reugny
Site du propriétaire de la station : http://www.meteo-veretz.fr/



Icône Facebook Association Météo Centre Icône Twitter Association Météo Centre Icône Chaîne Youtube Association Météo Centre Icône contact Association Météo Centre Icône Insta Association Météo Centre